Theta_e
320 320 319 321 322 320 318 318 319 319 321 321 321 321 321 322 322 322 320 320 321 320 320 319 319 319 318 318 319 319 320 321 323 325 327 327 328 325 324 324 346 349 348 344
320 319 320 321 319 318 317 318 320 321 322 321 321 321 322 323 323 322 320 321 321 321 320 319 318 318 318 317 317 318 319 320 322 323 325 325 322 324 329 335 331 346 350 347
319 320 320 319 318 317 319 319 321 321 321 320 321 323 325 324 322 320 321 321 321 320 319 319 319 318 318 317 317 316 318 318 318 322 321 324 326 332 334 328 327 334 349 349
319 320 319 318 317 318 319 320 320 320 320 322 324 325 324 323 321 321 321 321 322 320 319 319 318 318 317 317 316 316 316 316 316 320 321 322 324 323 328 333 335 333 339 349
317 319 318 318 319 319 319 319 319 319 320 322 324 325 325 324 323 322 323 322 321 319 319 319 318 317 317 316 316 315 315 315 315 314 319 321 320 322 321 322 328 334 341 338
318 319 319 318 317 318 319 317 319 322 323 329 326 325 325 324 324 323 322 321 320 319 319 319 318 316 315 314 314 314 314 314 314 314 317 320 319 320 321 323 327 338 339 342
318 319 318 317 317 318 318 321 332 332 330 331 327 325 326 325 325 324 322 320 320 320 319 318 317 315 313 313 312 312 313 313 313 313 316 317 320 320 319 324 331 335 342 340
318 323 320 319 318 320 322 323 329 332 329 326 325 325 324 326 325 322 320 320 320 320 319 317 316 314 313 312 311 311 310 312 313 313 313 317 318 320 319 325 333 340 342 341
321 319 321 320 318 318 322 320 323 326 325 323 322 324 326 325 324 322 322 322 320 319 319 317 315 313 312 312 311 310 310 310 311 312 313 315 317 320 319 321 333 335 342 341
319 322 321 320 318 318 319 321 326 325 327 327 324 323 323 326 325 324 322 320 320 319 318 317 314 313 311 311 310 309 309 309 310 311 313 315 315 317 320 321 333 336 337 343
317 322 319 320 319 319 319 320 321 322 324 326 326 323 326 323 322 323 321 320 320 319 318 316 314 312 311 309 309 308 308 308 309 309 310 312 314 316 319 323 330 336 337 341
317 321 324 321 320 320 321 324 324 332 325 324 324 325 322 323 322 321 321 321 320 319 317 315 313 312 310 309 308 307 307 307 308 308 309 310 312 314 318 323 325 334 335 343
319 322 327 323 322 321 320 320 319 323 326 325 325 323 323 323 322 322 321 320 319 318 317 314 313 311 309 308 307 307 306 306 307 307 308 309 311 314 316 319 324 327 337 338
317 322 322 327 324 322 325 324 321 322 328 324 323 321 321 321 323 322 321 319 318 318 316 313 312 310 309 308 307 306 305 305 306 306 306 308 309 312 315 318 322 324 332 338
320 319 318 319 319 319 320 320 319 320 322 325 322 321 322 323 323 321 320 319 318 317 315 313 310 309 309 308 306 305 305 304 305 306 306 307 308 311 314 317 320 324 327 335
320 317 317 318 318 319 319 319 319 319 320 320 320 321 321 321 319 319 319 319 317 316 313 311 310 309 308 307 306 304 304 304 305 305 305 306 307 310 313 316 319 325 326 333
320 319 319 322 320 321 323 320 320 321 321 321 322 321 321 320 319 319 318 317 316 314 312 311 309 309 308 306 305 304 303 304 304 304 305 306 307 309 313 316 319 325 326 333
321 320 322 323 322 324 321 321 321 321 319 319 318 320 319 318 318 318 317 315 314 313 311 310 310 309 307 306 304 304 303 303 303 303 304 305 306 308 312 315 318 323 328 330
321 321 323 324 325 321 320 320 321 322 322 320 318 317 318 317 317 318 315 315 314 312 310 311 310 308 306 304 303 302 303 303 302 302 303 304 305 307 311 314 317 322 327 330
320 320 322 323 326 323 320 320 318 317 323 320 318 318 318 318 322 320 317 315 312 311 311 310 309 307 304 303 303 302 302 302 301 302 303 304 304 307 309 314 316 324 328 331
320 321 321 323 323 320 318 318 318 320 324 319 318 317 317 320 321 317 315 312 312 311 310 308 308 305 303 304 303 302 302 302 302 303 304 306 308 309 310 313 316 323 328 330
323 322 322 322 323 323 317 318 321 320 321 318 316 315 317 317 317 316 313 313 312 311 309 308 306 304 303 303 302 301 302 302 303 305 306 310 312 310 310 314 318 324 328 331
320 323 325 322 323 319 317 319 319 318 316 316 316 316 317 317 316 313 313 312 311 309 307 307 306 304 304 303 302 302 302 302 305 305 309 312 312 311 313 316 320 326 327 329
320 320 321 320 319 319 318 318 318 318 317 317 316 316 316 316 314 312 312 311 309 307 307 306 305 303 303 303 302 302 302 302 304 307 309 312 315 318 317 320 322 326 326 328
318 318 320 321 320 318 317 317 317 318 317 316 316 317 316 314 312 312 311 309 307 307 306 306 305 303 302 303 302 303 303 304 302 306 307 310 313 318 319 321 323 321 320 320
313 319 321 321 319 319 318 317 316 316 316 316 316 316 314 313 312 311 309 307 307 305 306 306 304 303 302 303 303 303 304 304 303 304 306 309 310 315 318 320 321 321 321 321
Wind_Speed
17 8 11 15 5 7 9 11 14 12 13 16 15 18 18 21 20 16 12 9 6 7 9 11 13 15 17 19 21 24 27 28 24 22 27 29 31 38 43 41 42 42 47 52
7 14 17 3 1 6 9 13 14 15 14 9 16 21 21 18 15 15 12 10 8 7 10 12 15 18 21 21 22 25 27 26 26 28 30 33 38 39 39 37 46 54 45 57
16 12 6 2 7 10 12 13 15 14 14 18 23 22 23 22 11 11 12 13 9 8 10 13 16 21 22 22 25 25 26 32 29 28 34 30 32 34 34 43 48 54 49 57
12 14 10 9 11 11 15 9 7 11 14 14 10 14 18 9 15 14 20 20 13 4 10 14 20 25 25 25 27 27 26 28 29 29 31 32 36 44 46 41 37 51 52 51
8 10 8 13 13 9 11 10 12 15 17 17 21 11 15 15 16 17 21 16 3 5 11 18 21 24 25 27 29 29 25 26 34 36 31 35 37 40 47 53 53 46 51 56
18 12 5 9 13 3 8 11 18 20 16 14 21 15 11 5 11 10 11 5 1 7 15 19 24 26 28 28 28 30 30 31 28 33 33 36 36 45 45 48 48 42 45 42
19 20 15 9 10 11 13 9 5 5 10 13 10 6 12 8 11 8 7 3 2 10 16 22 27 27 29 29 26 30 31 33 33 33 33 35 35 42 43 42 42 40 43 43
15 14 21 15 13 6 11 10 5 5 4 10 18 7 4 12 14 14 5 1 7 13 20 23 26 24 27 26 28 27 30 33 36 34 34 34 34 40 39 33 36 33 45 47
9 17 14 11 8 6 8 8 2 6 9 11 10 11 8 14 9 7 4 3 13 18 18 24 24 23 24 28 28 30 31 34 37 35 35 37 33 35 38 30 28 41 37 43
5 9 11 12 7 13 9 5 4 4 5 7 7 9 7 10 5 4 4 11 14 17 18 24 24 22 25 26 28 30 31 35 37 35 35 35 34 34 36 33 18 29 44 40
8 5 6 12 12 13 9 11 8 6 6 4 6 4 6 10 8 3 9 16 18 16 20 23 22 24 25 27 26 29 32 34 34 34 38 36 34 34 32 34 21 28 24 34
13 6 9 15 14 18 16 14 15 6 7 8 10 14 6 2 1 8 14 11 9 13 19 22 24 22 26 26 28 31 32 33 34 34 36 36 34 31 30 31 26 19 33 23
8 6 7 11 15 10 9 15 14 12 9 15 9 6 5 7 9 17 20 13 16 19 19 21 21 24 26 27 28 31 32 35 34 36 36 34 32 32 30 26 30 19 19 28
1 9 11 8 10 3 13 15 15 15 11 13 19 24 22 19 18 20 16 15 17 16 20 21 21 26 25 27 28 35 34 34 36 36 36 35 33 28 28 27 25 25 16 21
8 12 16 20 22 18 17 19 19 20 20 19 21 24 21 20 17 13 13 17 17 20 19 19 24 27 28 28 34 34 33 36 36 36 37 36 32 26 29 24 22 24 18 18
12 12 15 20 20 20 22 21 22 23 24 26 25 25 19 18 18 18 19 18 19 19 17 23 23 27 28 29 35 39 37 38 38 37 37 36 32 27 25 23 21 21 21 15
18 13 11 16 17 19 20 20 21 20 20 18 20 19 12 13 14 17 17 18 15 16 19 22 24 25 26 32 35 35 37 39 39 38 37 35 33 28 25 25 22 20 21 11
15 18 11 10 12 12 11 5 6 8 10 14 14 11 10 11 14 16 16 8 12 18 21 22 22 22 26 31 33 34 37 37 38 35 36 34 32 27 23 24 19 18 18 15
16 15 6 6 10 15 20 12 7 14 10 11 10 10 8 13 15 12 4 10 14 18 21 19 17 20 28 31 35 34 37 37 37 36 34 36 32 28 23 19 22 18 18 16
18 13 9 6 5 7 7 6 4 4 5 3 5 1 8 12 9 8 15 13 17 18 19 19 18 21 28 33 34 35 37 37 37 36 36 35 32 27 23 21 18 15 14 10
17 17 18 14 9 9 11 16 10 4 1 8 1 6 9 7 4 8 10 14 14 16 18 18 17 21 28 32 33 36 36 36 36 36 33 30 28 26 20 19 18 13 10 7
15 14 12 14 14 19 8 7 9 1 6 3 5 9 10 12 9 8 12 14 15 16 18 16 18 21 30 30 32 35 36 36 36 33 29 27 25 21 16 16 14 10 7 5
7 7 7 13 7 6 7 11 18 8 4 6 7 9 10 10 9 10 11 14 15 16 16 15 16 21 30 30 31 33 34 35 33 31 25 20 14 6 12 13 13 12 5 3
8 12 7 10 12 11 18 16 11 9 14 12 13 10 10 8 8 10 11 13 15 14 14 14 16 20 30 31 30 30 32 32 29 28 22 19 19 2 5 8 13 7 3 5
11 3 4 8 8 12 10 16 10 16 18 16 13 7 7 6 7 8 10 12 13 13 14 13 16 19 27 31 30 30 30 30 30 26 22 21 18 11 10 1 2 4 6 3
13 12 8 4 14 11 11 15 11 6 9 13 8 8 7 5 6 7 9 11 11 13 12 12 15 16 25 29 30 30 28 28 30 31 25 21 21 18 12 9 10 7 8 9
Wind_Direction
206 265 253 255 225 7 318 291 278 280 276 269 275 280 272 276 267 250 231 217 250 281 306 315 321 319 314 308 302 296 297 300 301 300 294 290 289 288 284 271 254 223 232 227
226 251 250 60 340 294 295 279 276 272 267 275 271 273 280 267 253 237 206 217 238 273 299 314 317 317 312 307 304 301 294 297 291 284 279 279 277 267 267 276 270 239 229 226
254 278 85 216 268 271 248 257 264 288 316 292 269 265 265 236 205 187 205 224 232 266 304 309 319 323 315 309 306 304 293 289 296 295 293 293 284 274 281 277 261 262 233 221
263 258 210 237 252 263 266 252 306 282 284 277 320 290 292 196 191 203 212 214 224 285 298 307 320 325 321 315 308 303 297 291 291 292 295 288 287 281 267 263 263 256 251 241
265 221 205 235 247 276 266 314 299 281 276 277 269 266 262 253 188 203 225 191 147 281 300 319 321 321 315 314 315 312 302 301 301 294 283 288 290 287 293 275 266 263 257 255
257 273 267 277 272 248 268 284 274 256 248 252 259 237 274 185 202 159 104 134 187 317 319 314 327 322 319 314 310 311 309 305 300 296 291 286 293 289 294 290 275 261 258 261
234 233 225 225 247 234 226 254 286 287 213 236 249 271 257 288 183 124 108 125 320 319 313 331 323 322 323 322 315 303 301 310 304 301 294 288 290 292 300 289 279 260 253 247
279 214 200 174 224 293 206 239 239 259 263 315 321 257 265 79 88 101 117 206 261 328 325 325 318 322 320 318 321 310 304 299 304 299 296 290 292 295 303 299 274 262 246 249
305 241 156 156 191 208 224 222 261 316 293 263 241 267 120 117 124 164 214 338 327 321 322 322 317 322 321 320 314 313 310 296 304 302 300 298 300 297 307 308 277 252 246 250
281 268 196 190 214 230 232 8 212 197 252 261 267 306 304 147 176 91 342 317 330 314 325 321 322 328 323 319 316 313 307 306 301 305 304 302 300 303 308 313 296 264 249 234
249 215 252 164 204 226 188 229 224 249 260 265 300 268 115 359 351 15 310 314 314 330 325 321 323 324 320 320 317 314 308 308 305 303 305 306 307 307 311 315 297 263 262 245
225 235 251 223 221 220 237 221 211 209 234 227 265 277 318 0 4 283 274 288 334 333 322 322 321 327 324 319 317 316 313 310 309 306 304 302 307 309 311 310 319 283 252 250
187 235 239 248 250 184 228 246 247 255 238 249 259 255 159 218 246 276 313 330 325 327 329 325 328 326 324 319 318 318 314 310 310 310 308 307 307 310 309 313 318 308 269 250
127 237 224 246 170 235 220 222 228 231 239 246 243 268 279 292 300 291 314 340 322 336 334 326 330 323 323 321 318 318 317 314 311 312 312 309 309 303 312 314 314 322 279 253
192 243 255 254 268 272 259 256 253 244 240 235 257 262 275 273 284 339 328 326 337 333 331 331 326 323 322 321 322 320 317 318 318 316 314 311 309 305 311 309 314 312 314 252
182 238 251 259 260 260 260 258 257 256 257 259 265 269 276 290 340 329 327 346 335 330 333 324 323 323 322 323 323 322 318 319 321 317 312 311 311 309 308 308 309 301 314 263
203 206 239 263 272 271 262 252 256 260 252 260 261 273 311 330 324 333 345 330 331 332 324 323 324 320 320 324 323 320 320 322 321 319 316 313 310 305 303 302 302 301 311 290
209 213 222 251 287 268 252 246 279 272 280 294 298 310 312 321 331 326 324 349 332 327 321 319 318 318 322 322 322 321 324 325 323 317 312 309 308 302 294 300 286 308 299 278
204 194 227 235 227 265 296 296 279 261 252 283 285 292 328 324 311 316 46 340 333 323 314 315 321 328 322 325 331 327 328 328 325 321 318 308 302 292 277 279 287 300 301 287
198 206 188 201 221 232 233 124 53 8 273 227 169 348 301 310 299 300 316 325 320 313 312 327 326 327 328 335 334 333 334 332 329 323 314 311 301 289 272 269 276 278 288 274
209 206 209 213 233 253 241 275 129 251 154 145 238 305 290 295 311 323 323 312 302 313 325 327 327 328 336 338 339 338 338 336 330 326 320 313 305 286 262 255 261 271 284 290
212 198 213 210 227 241 237 193 203 145 149 225 292 310 306 308 318 326 311 306 317 324 328 328 329 331 345 345 346 342 342 339 337 332 328 324 316 279 241 237 268 269 289 312
207 254 171 187 207 195 236 245 215 223 256 292 293 299 301 304 309 308 308 317 323 326 329 330 329 331 348 350 350 347 347 346 342 342 334 332 327 242 223 254 257 243 243 32
205 231 210 195 224 214 217 235 187 215 247 264 291 295 296 290 299 304 317 319 322 328 331 335 328 333 349 352 351 353 353 352 354 349 346 353 14 300 222 251 277 235 188 48
273 155 297 268 218 190 220 224 239 235 238 250 265 273 277 290 293 310 318 320 324 328 331 335 330 336 349 354 355 358 358 358 360 1 2 9 21 47 50 98 221 328 51 17
257 229 205 201 243 237 218 249 278 260 279 236 248 256 251 262 296 312 320 321 326 329 334 336 333 337 350 355 359 360 1 3 3 1 8 20 14 40 43 49 49 10 354 356